CZ-4C DEB, 43265

Orbit data source: Space-Track

CZ-4C DEB, 43265 is space debris in SSO originally from a launch on Sat, 31 Mar 2018 UTC launched from the Taiyaun Space Center, China (TSC). Debris objects in space refer to the collection of defunct objects orbiting the Earth. Examples of debris include non-operational satellites, rocket bodies, and fragments generated from explosions, collisions, or faulty payload assembly.

Loading next visibility...
Identifier
43265, 2018-031G
Orbit
SSO
Country
Flag of CNCN / PRC
Related business
Manufacturer
Unknown
Mission
Spacecraft
Bus & Motor
Unknown
Mass
Unknown
Launch date (UTC)
2018-03-31 (7 years ago)
Launch vehicle
Unknown
Launch site
Taiyaun Space Center, China (TSC)
Object type
Payload
Rocket body
Debris
Shape & HBR
Unknown
Radar Cross Section
Large (>1 m²)

Expand to show TLE details & history
Last TLE update: 16 hours ago

TLE from 16 hours ago
0 CZ-4C DEB
1 43265U 18031G   25260.77365586  .00007900  00000-0  67597-3 0  9998
2 43265  97.8028 339.1864 0005544  74.1225 286.0608 14.97861519403579
Epoch: 2025-09-17T18:34Z
TLE epoch observation values (Epoch: 2025-09-17T18:34:03.866Z)
Latitude
0.00002°
Longitude
63.7255°
Altitude
575.489 km
Speed
7.574 km/s
True Right ascension
22h 36m 44s
True Declination
0° 00' 00"
Sunlit
Object was in full shadow at epoch
Visualization orbit readout
Latitude
Unknown
Longitude
Unknown
Altitude
Unknown
Speed
Unknown
Apparent Right ascension
Unknown
Apparent Declination
Unknown
Sunlit
N/A
Visualization observer readout
Local Sidereal Time
03:37:01
Azimuth
Unknown
Elevation
Unknown
Doppler factor
Unknown
Orbital elements
Apogee altitude
574.37 km
Perigee altitude
566.665 km
Semi-major axis
6,948.655 km
Eccentricity
0.00055
Inclination
97.8028°
RAAN
339.1864°
Arg. of periapsis
74.1225°
True anomaly
285.99974°
Mean anomaly
286.0608°
Eccentric anomaly
286.03027°
Mean motion
3.74707 °/min
Orbital period
96.08 mins
BSTAR
0.00067597
Loading maneuver chart data...
Computing Atmospheric mass density...
Loading historical data...
Loading historical data...
Loading historical data...
Loading historical data...
Loading historical data...
Loading historical data...
Loading historical data...

Documentation

Showing up to 5 results
|